Retour au catalogue

STARLINK-5120

ActifCommunicationsVLEO
NORAD 53982·PAYLOAD·🇺🇸 United States

Lancé Oct 5, 2022 depuis Vandenberg Space Force Base

Loading…

Prochains Passages (prochaines 24 heures)

TLE

FraisSource: CelesTrak SupGP

Époque: Sep 15, 2026, 01:48 UTC

1 53982C 22125U   26258.07548611  .00708650  00000+0  31640-1 0  2582
2 53982  53.1594  82.9323 0001153  82.1123 100.4139 15.20490324    19

Suivez STARLINK-5120 en temps réel avec AllMySat

Download on the App Store